Ord, NE

8:41 PM CDT on May 22, 2018 (GMT -0500)
Sharp

Weather History for KODX - November, 2013

Change the Weather History Date:

Monday, November 4, 2013

  Actual Average Record
Temperature  
Mean Temperature 40 °F 42 °F  
Max Temperature 53 °F 54 °F 76 °F (2016)
Min Temperature 27 °F 30 °F 21 °F (2002)
Degree Days  
Heating Degree Days 25 23  
Month to date heating degree days 88 90  
Since 1 July heating degree days 662 710  
Cooling Degree Days 0 0  
Month to date cooling degree days 0 0  
Year to date cooling degree days 907 845  
Moisture  
Dew Point 29 °F    
Average Humidity 62    
Maximum Humidity 89    
Minimum Humidity 35    
Precipitation  
Precipitation 0.00 in 0.05 in 0.64 in (1948)
Month to date precipitation T 0.19  
Year to date precipitation 23.85 23.47  
Sea Level Pressure  
Sea Level Pressure 29.99 in    
Wind  
Wind Speed 7 mph (NNW)    
Max Wind Speed 21 mph    
Max Gust Speed 30 mph    
Visibility 10 miles    
Events      
T = Trace of Precipitation, MM = Missing Value Source: NWS Daily Summary

Daily Weather History Graph

Daily Weather History Graph

Search for Another Location

Airport or City:

Astronomy

Nov. 04, 2013 Rise Set
Actual Time 7:11 AM CST 5:26 PM CST
Civil Twilight 6:42 AM CST 5:55 PM CST
Nautical Twilight 6:09 AM CST 6:28 PM CST
Astronomical Twilight 5:37 AM CST 7:00 PM CST
Moon 8:24 AM CST (11/4) 6:31 PM CST (11/4)
Length of Visible Light 11h 12m
Length of Day
10h 14m
New Moon, 2% of the Moon is Illuminated
Nov 4
New Moon
Nov 9
First Quarter
Nov 17
Full
Nov 25
Last Quarter
Dec 2
New

Hourly Weather History & Observations

Time (CST) Temp. Windchill Dew Point Humidity Pressure Visibility Wind Dir Wind Speed Gust Speed Precip Events Conditions
12:53 AM 35.1 °F 28.6 °F 32.0 °F 89% 29.73 in 10.0 mi NW 8.1 mph - N/A   Clear
1:53 AM 39.0 °F 33.4 °F 33.1 °F 79% 29.73 in 10.0 mi NNW 8.1 mph - N/A   Clear
2:53 AM 37.9 °F 32.7 °F 33.1 °F 83% 29.75 in 10.0 mi NNW 6.9 mph - N/A   Clear
3:53 AM 37.9 °F 32.7 °F 34.0 °F 86% 29.78 in 10.0 mi NNW 6.9 mph - N/A   Clear
4:53 AM 41.0 °F 34.3 °F 35.1 °F 79% 29.83 in 10.0 mi NW 11.5 mph - N/A   Mostly Cloudy
5:53 AM 42.1 °F 36.1 °F 33.1 °F 70% 29.83 in 10.0 mi NNW 10.4 mph - N/A   Overcast
6:53 AM 39.9 °F 33.4 °F 32.0 °F 73% 29.89 in 10.0 mi NW 10.4 mph - N/A   Scattered Clouds
7:53 AM 41.0 °F 32.2 °F 34.0 °F 76% 29.93 in 10.0 mi NNW 18.4 mph 25.3 mph N/A   Overcast
8:53 AM 43.0 °F 35.7 °F 34.0 °F 71% 29.99 in 10.0 mi NNW 15.0 mph 21.9 mph N/A   Mostly Cloudy
9:53 AM 44.1 °F 36.2 °F 30.9 °F 60% 30.03 in 10.0 mi NNW 18.4 mph 25.3 mph N/A   Overcast
10:53 AM 48.0 °F - 32.0 °F 54% 30.05 in 10.0 mi NNW 16.1 mph - N/A   Scattered Clouds
11:53 AM 48.9 °F - 30.0 °F 48% 30.05 in 10.0 mi North 12.7 mph 21.9 mph N/A   Clear
12:53 PM 51.1 °F - 28.9 °F 43% 30.05 in 10.0 mi North 10.4 mph - N/A   Clear
1:53 PM 52.0 °F - 28.0 °F 40% 30.02 in 10.0 mi North 8.1 mph - N/A   Clear
2:53 PM 53.1 °F - 26.1 °F 35% 30.01 in 10.0 mi North 8.1 mph - N/A   Clear
3:53 PM 52.0 °F - 25.0 °F 35% 30.04 in 10.0 mi NE 6.9 mph - N/A   Clear
4:53 PM 48.0 °F - 26.1 °F 42% 30.06 in 10.0 mi Calm Calm - N/A   Clear
5:53 PM 37.0 °F - 26.1 °F 65% 30.09 in 10.0 mi Calm Calm - N/A   Clear
6:53 PM 30.9 °F - 27.0 °F 85% 30.14 in 9.0 mi Calm Calm - N/A   Clear
7:53 PM 30.9 °F - 26.1 °F 82% 30.16 in 10.0 mi Calm Calm - N/A   Clear
8:53 PM 28.9 °F - 25.0 °F 85% 30.16 in 10.0 mi Calm Calm - N/A   Clear
9:53 PM 30.0 °F - 26.1 °F 85% 30.17 in 10.0 mi Calm Calm - N/A   Clear
10:53 PM 28.0 °F - 25.0 °F 88% 30.17 in 10.0 mi Calm Calm - N/A   Clear
11:53 PM 27.0 °F - 24.1 °F 89% 30.16 in 10.0 mi Calm Calm - N/A   Clear